[[{"header":{"parameterUnit":"m.s-1","parameterCategory":1,"la1":30.2991,"la2":30.254,"lo1":-89.0895,"lo2":-89.0444,"dy":0.0017,"dx":0.0017,"nx":28,"ny":28,"refTime":"2025-06-19T21:00:00:Z","depth":0,"parameterNumber":2,"parameterNumberName":"U-component_of_WINDS"},"data":[0,0,0,0,0,0,0,0,0,0,0,0,0,0,0,0,0,0,0,0,0,0,0,0,0,0,0,0,0,0,0,0,0,0,0,0,0,0,0,0,0,0,0,0,0,0,0,0,0,0,0,0,0,0,0,0,0,0,3.729,3.7291,0,3.7376,3.7377,3.7378,3.73,3.7297,3.7294,3.7291,3.7379,3.7384,3.7389,0,0,0,0,0,0,0,0,0,0,0,0,0,3.7058,3.7063,3.729,3.7291,3.7292,3.7376,3.7377,3.7378,3.7301,3.7297,3.7293,3.729,3.7377,3.7384,3.739,0,0,0,0,0,0,0,0,0,0,0,0,0,3.7153,3.7064,3.729,3.7264,3.7262,3.7375,3.7377,3.7378,3.7302,3.7297,3.7292,3.7288,3.7375,3.7383,3.7391,3.7534,0,0,3.7415,3.7418,0,0,0,0,0,0,0,0,3.7148,3.7162,3.7266,3.7266,3.7264,3.7322,3.7327,3.7431,3.7303,3.7287,3.7291,3.7285,3.7364,3.7373,3.7399,3.7538,3.7542,3.7416,3.7421,3.7424,3.7426,0,0,0,0,0,0,0,3.7141,3.7157,3.7324,3.7268,3.7267,3.7247,3.7256,3.7347,3.7351,3.7288,3.7282,3.7293,3.7363,3.7392,3.7401,3.7543,3.7416,3.7423,3.7427,3.7431,3.7802,3.7807,0,0,0,0,0,0,3.7137,3.7152,3.7321,3.7326,3.7193,3.7255,3.7264,3.7308,3.735,3.7351,3.7297,3.729,3.738,3.7391,3.7403,3.7571,3.7424,3.7431,3.7436,3.7797,3.7803,3.7809,0,0,0,0,0,0,3.7133,3.7153,3.7317,3.7238,3.7257,3.7264,3.7314,3.7313,3.7342,3.7357,3.7357,3.7326,3.7377,3.7392,3.7502,3.7574,3.7435,3.7442,3.7791,3.7799,3.7806,3.7911,0,0,0,0,0,0,3.7126,3.7152,3.7207,3.724,3.7262,3.7415,3.7319,3.7318,3.7355,3.7346,3.7384,3.7386,3.7375,3.749,3.751,3.7582,3.7448,3.7784,3.7794,3.7803,3.7901,3.7921,3.7938,0,0,0,0,0,3.7118,3.7233,3.721,3.7231,3.7331,3.7419,3.7432,3.7416,3.7362,3.7416,3.7426,3.7385,3.7563,3.7502,3.7523,3.7599,3.778,3.7791,3.7803,3.7892,3.7917,3.7938,0,0,0,0,0,0,3.7209,3.7237,3.7212,3.7341,3.7378,3.7406,3.7474,3.7443,3.7497,3.7486,3.7465,3.7474,3.7589,3.7605,3.7537,3.7739,3.7662,3.7679,3.7723,3.7747,3.7765,3.7758,3.7455,0,0,0,0,0,3.7244,3.7314,3.7335,3.7447,3.7467,3.7468,3.7506,3.7491,3.7528,3.7544,3.7561,3.76,3.7664,3.7707,3.7767,3.7904,3.7909,3.7966,3.7985,3.8,3.8014,3.8084,3.8109,3.7846,3.7846,3.7846,0,0,3.7317,3.7341,3.7387,3.7466,3.7493,3.7564,3.7482,3.7562,3.7614,3.7556,3.7659,3.7674,3.7715,3.7838,3.7893,3.7855,3.8088,3.8015,3.8027,3.8032,3.8099,3.8123,3.8146,3.7854,3.7853,3.7851,0,0,3.7486,3.7512,3.7607,3.7636,3.7678,3.7677,3.7701,3.7733,3.774,3.7844,3.7801,3.7864,3.7976,3.8006,3.8036,3.8216,3.8179,3.8237,3.8333,3.8403,3.8423,3.8441,3.8503,3.8525,3.825,3.8251,3.8251,0,3.7571,3.7678,3.766,3.7742,3.7778,3.7728,3.7823,3.7852,3.7912,3.7937,3.7894,3.8032,3.8057,3.8185,3.8228,3.8256,3.8279,3.8231,3.8422,3.844,3.8456,3.8515,3.8538,3.8257,3.8256,3.8256,3.8255,0,3.7779,3.7854,3.7925,3.7983,3.8027,3.8116,3.811,3.8157,3.8138,3.8142,3.8247,3.8275,3.8339,3.8369,3.8352,3.8494,3.8469,3.8425,3.8347,3.8488,3.8542,3.8565,3.8266,3.8264,3.8262,3.8261,0,0,3.8006,3.8052,3.8079,3.8103,3.8146,3.8203,3.829,3.8352,3.839,3.8434,3.8504,3.86,3.8558,3.8593,3.8579,3.864,3.8777,3.8588,3.8588,3.8619,3.8933,3.8963,3.899,3.8754,3.8759,3.8762,3.8928,0,3.8174,3.8323,3.8309,3.845,3.8517,3.8471,3.8546,3.858,3.8586,3.8644,3.8651,3.8718,3.866,3.868,3.8739,3.8748,3.8839,3.8736,3.8818,3.8821,3.8806,3.9019,3.9052,3.9207,3.895,3.8953,3.8956,0,3.8389,3.8439,3.8587,3.8617,3.8645,3.8712,3.8767,3.8824,3.8861,3.8861,3.8899,3.8874,3.896,3.8883,3.8999,3.8929,3.8962,3.8972,3.8977,3.8982,3.8895,3.9026,3.9257,3.9279,3.899,3.8987,3.8985,0,3.8536,3.864,3.8741,3.8764,3.8804,3.8851,3.887,3.8903,3.894,3.8989,3.9012,3.9071,3.9102,3.9147,3.9138,3.9083,3.9257,3.9179,3.9257,3.9258,3.9294,3.9291,3.953,3.932,3.932,3.9319,3.9319,0,3.8723,3.8815,3.8807,3.8869,3.897,3.8953,3.9053,3.9066,3.9095,3.9158,3.9123,3.9183,3.9169,3.9228,3.9223,3.9318,3.9334,3.9335,3.9332,3.9336,3.9336,3.9355,3.9343,3.9326,3.9324,3.9323,3.9322,0,3.8903,3.8903,3.9009,3.9037,3.9046,3.9119,3.9143,3.9201,3.9204,3.9284,3.9302,3.9308,3.9375,3.9372,3.9449,3.9445,3.9562,3.9548,3.9549,3.9545,3.9622,3.9614,3.988,3.9913,3.9684,3.9687,3.9688,0,3.9021,3.909,3.9126,3.9165,3.9186,3.9251,3.9289,3.9276,3.9316,3.9363,3.9415,3.948,3.953,3.9641,3.9651,3.971,3.9694,3.9784,3.9703,3.9705,3.9692,3.9687,3.9692,3.9799,3.9801,3.9803,3.9805,0,3.923,3.9226,3.9282,3.9338,3.9384,3.9428,3.9467,3.9502,3.9492,3.954,3.9609,3.9648,3.9726,3.979,3.9845,3.9864,3.9832,3.9831,3.9851,3.9855,3.9852,3.9852,3.9589,3.9824,3.9822,3.9821,3.982,3.9819,3.938,3.9438,3.9472,3.9535,3.9564,3.9601,3.9656,3.9667,3.9724,3.9785,3.9775,3.9851,3.9885,3.9956,3.998,4.0039,4.0007,4.0038,4.0045,4.0052,4.0059,3.9845,4.005,4.0049,4.0049,4.0048,4.0048,0,3.9584,3.9603,3.9662,3.9718,3.9768,3.9735,3.9777,3.982,3.9888,3.9922,3.9973,4.0051,4.0112,4.0128,4.0187,4.0231,4.0218,4.0246,4.0241,4.0246,4.0086,4.0061,4.0256,4.0256,4.0255,4.0255,4.0255,4.0255,3.9696,3.9792,3.9792,3.9901,3.992,3.9994,4.002,4.0054,4.0081,4.017,4.0221,4.0231,4.0257,4.0318,4.0372,4.0375,4.0397,4.0431,4.0428,4.0278,4.0257,4.0237,4.0213,4.0437,4.0437,4.0582,4.0583,4.0584]},{"header":{"parameterUnit":"m.s-1","parameterCategory":1,"la1":30.2991,"la2":30.254,"lo1":-89.0895,"lo2":-89.0444,"dy":0.0017,"dx":0.0017,"nx":28,"ny":28,"refTime":"2025-06-19T21:00:00:Z","depth":0,"parameterNumber":3,"parameterNumberName":"V-component_of_WINDS"},"data":[0,0,0,0,0,0,0,0,0,0,0,0,0,0,0,0,0,0,0,0,0,0,0,0,0,0,0,0,0,0,0,0,0,0,0,0,0,0,0,0,0,0,0,0,0,0,0,0,0,0,0,0,0,0,0,0,0,0,2.9574,2.9575,0,2.963,2.9631,2.9632,2.9602,2.9601,2.9599,2.9598,2.9654,2.9656,2.9659,0,0,0,0,0,0,0,0,0,0,0,0,0,2.9439,2.9442,2.9574,2.9575,2.9576,2.963,2.9631,2.9632,2.9602,2.9601,2.9599,2.9597,2.9653,2.9656,2.966,0,0,0,0,0,0,0,0,0,0,0,0,0,2.9497,2.9443,2.9574,2.9568,2.9568,2.963,2.9631,2.9632,2.9603,2.9601,2.9598,2.9596,2.9652,2.9656,2.966,2.9732,0,0,2.9673,2.9675,0,0,0,0,0,0,0,0,2.9493,2.9502,2.9568,2.9568,2.9568,2.9607,2.9604,2.9665,2.9603,2.9589,2.9598,2.9595,2.964,2.9645,2.966,2.9734,2.9737,2.9674,2.9676,2.9678,2.9679,0,0,0,0,0,0,0,2.9489,2.9499,2.9596,2.9569,2.9569,2.9561,2.9567,2.9615,2.9627,2.9591,2.9589,2.9596,2.9639,2.9656,2.9661,2.9737,2.9673,2.9677,2.968,2.9682,2.987,2.9872,0,0,0,0,0,0,2.9486,2.9496,2.9595,2.9598,2.9525,2.9565,2.9572,2.9597,2.9626,2.9628,2.9597,2.9594,2.965,2.9656,2.9663,2.9747,2.9678,2.9682,2.9685,2.9868,2.9871,2.9873,0,0,0,0,0,0,2.9483,2.9495,2.9592,2.9547,2.9558,2.957,2.9599,2.9599,2.9616,2.9631,2.9633,2.9613,2.9648,2.9657,2.9714,2.9749,2.9684,2.9688,2.9865,2.9868,2.9872,2.9917,0,0,0,0,0,0,2.948,2.9494,2.9523,2.9547,2.9561,2.9644,2.9601,2.9602,2.9624,2.962,2.9646,2.9648,2.9647,2.9708,2.9719,2.9754,2.9691,2.9862,2.9866,2.9871,2.9913,2.9922,2.993,0,0,0,0,0,2.9475,2.9534,2.9524,2.9536,2.9597,2.9646,2.9653,2.9652,2.9627,2.9654,2.9664,2.9647,2.9743,2.9714,2.9726,2.9763,2.9859,2.9865,2.987,2.9909,2.992,2.993,0,0,0,0,0,0,2.9513,2.9537,2.9527,2.9595,2.9619,2.9641,2.9676,2.9664,2.9695,2.969,2.9686,2.9692,2.9751,2.9763,2.973,2.9832,2.9797,2.9805,2.9823,2.9834,2.9842,2.9838,2.9695,0,0,0,0,0,2.9529,2.9568,2.9586,2.9645,2.9657,2.9665,2.9686,2.9683,2.9706,2.9716,2.973,2.9753,2.9788,2.9811,2.9845,2.9914,2.9918,2.9945,2.9954,2.9961,2.9967,3.0003,3.0014,2.9891,2.9891,2.9891,0,0,2.9563,2.9581,2.9606,2.9653,2.9671,2.971,2.9673,2.9717,2.9745,2.9723,2.9777,2.9788,2.9813,2.9876,2.9905,2.9887,3.0002,2.9967,2.9973,2.9976,3.0009,3.0021,3.0031,2.9895,2.9894,2.9893,0,0,2.9645,2.9664,2.9713,2.9731,2.9759,2.9763,2.9775,2.9798,2.9804,2.9859,2.9842,2.9875,2.9937,2.9955,2.9972,3.0058,3.0044,3.0069,3.0114,3.0148,3.0158,3.0167,3.0196,3.0207,3.0076,3.0076,3.0076,0,2.9684,2.9743,2.974,2.9785,2.9805,2.9786,2.9835,2.9853,2.9889,2.9903,2.9884,2.9959,2.9975,3.0041,3.0061,3.0077,3.0089,3.0066,3.0157,3.0166,3.0174,3.0201,3.0213,3.0079,3.0079,3.0078,3.0078,0,2.9789,2.983,2.9867,2.9902,2.9926,2.9973,2.9976,3.0001,2.9995,3.0,3.0055,3.0073,3.0109,3.0124,3.0119,3.0189,3.0177,3.0158,3.0122,3.0188,3.0214,3.0225,3.0083,3.0082,3.0081,3.008,0,0,2.9898,2.9929,2.9943,2.9958,2.9985,3.0016,3.0061,3.0096,3.0116,3.0142,3.0178,3.0229,3.0211,3.023,3.0226,3.0257,3.0322,3.0233,3.0233,3.0248,3.0398,3.0412,3.0424,3.0312,3.0314,3.0316,3.0395,0,2.9981,3.006,3.0057,3.013,3.0167,3.0148,3.0187,3.0207,3.0213,3.0244,3.025,3.0286,3.0259,3.0271,3.03,3.0308,3.0351,3.0302,3.0344,3.0346,3.0338,3.0438,3.0454,3.0528,3.0405,3.0407,3.0408,0,3.0088,3.0117,3.0193,3.0213,3.0228,3.0263,3.0294,3.0324,3.0346,3.0348,3.0369,3.0359,3.0403,3.0367,3.0426,3.0392,3.0409,3.0415,3.0418,3.0422,3.0381,3.0443,3.0551,3.0562,3.0425,3.0423,3.0422,0,3.0158,3.0215,3.0268,3.0281,3.0307,3.0331,3.0343,3.0362,3.0382,3.0409,3.0422,3.0453,3.047,3.0493,3.0492,3.0466,3.0551,3.0515,3.0553,3.0553,3.0572,3.0571,3.0683,3.0584,3.0584,3.0584,3.0583,0,3.0251,3.0298,3.0299,3.0332,3.0384,3.0379,3.043,3.0439,3.0456,3.0489,3.0474,3.0505,3.0502,3.0532,3.0532,3.0579,3.0587,3.0589,3.0588,3.059,3.059,3.0601,3.0596,3.0587,3.0586,3.0585,3.0585,0,3.0338,3.0341,3.0397,3.0415,3.0421,3.0458,3.0473,3.0503,3.0507,3.0548,3.0558,3.0564,3.0599,3.06,3.064,3.0639,3.0697,3.0691,3.069,3.0689,3.0726,3.0722,3.0849,3.0865,3.0757,3.0758,3.0758,0,3.0396,3.0432,3.0454,3.0475,3.0488,3.0522,3.0542,3.0538,3.056,3.0586,3.0613,3.0646,3.0673,3.0729,3.0736,3.0767,3.076,3.0803,3.0765,3.0765,3.0759,3.0757,3.076,3.081,3.0811,3.0812,3.0813,0,3.0499,3.0499,3.0529,3.0559,3.0584,3.0608,3.063,3.0647,3.0646,3.0671,3.0706,3.0727,3.0767,3.08,3.0829,3.0839,3.0826,3.0825,3.0835,3.0837,3.0835,3.0835,3.071,3.0822,3.0821,3.082,3.082,3.082,3.0573,3.0603,3.0623,3.0656,3.0672,3.0693,3.0721,3.0728,3.0758,3.079,3.0786,3.0825,3.0844,3.0881,3.0893,3.0923,3.0908,3.0923,3.0927,3.093,3.0934,3.083,3.0928,3.0928,3.0928,3.0928,3.0927,0,3.0674,3.0686,3.0717,3.0747,3.0773,3.0758,3.0781,3.0803,3.0838,3.0856,3.0882,3.0922,3.0953,3.0963,3.0992,3.1014,3.1008,3.1022,3.102,3.1022,3.0946,3.0934,3.1026,3.1026,3.1026,3.1026,3.1026,3.1026,3.073,3.078,3.0781,3.0837,3.0848,3.0886,3.09,3.0918,3.0933,3.0978,3.1004,3.1009,3.1024,3.1054,3.1081,3.1083,3.1094,3.111,3.1109,3.1038,3.1028,3.1018,3.1007,3.1113,3.1113,3.1183,3.1183,3.1184]}]]